Location: Basse Occidentale du Courleau
(48.3833°N, 4.8333°W)
Time: 19:25:25
(UTC+00:00)

Cosmos 1892 - Pass Details

Date: 05 July 2020
Orbit: 505 x 523 km, 82.5° (Epoch: 05 August)

Event Time Altitude Azimuth Distance (km) Brightness Sun altitude
Exits shadow 22:42:05 30° 168° (SSE) 928 3.4 -15.4°
Maximum altitude 22:43:45 64° 97° (E) 571 2.7 -15.5°
Drops below altitude 10° 22:47:32 10° 15° (NNE) 1,742 6.1 -15.7°
Sets 22:49:41 0° 13° (NNE) 2,637 7.2 -15.9°
